Weather History for KCZZ - August, 2013

Change the Weather History Date:

Friday, August 30, 2013

  Actual Average Record
Temperature  
Mean Temperature 82 °F 73 °F  
Max Temperature 91 °F 94 °F 104 °F (1998)
Min Temperature 73 °F 52 °F 38 °F (1962)
Degree Days  
Heating Degree Days 0 0  
Month to date heating degree days 2 0  
Since 1 June heating degree days 30 63  
Since 1 July heating degree days 2 7  
Cooling Degree Days 17 8  
Month to date cooling degree days 256 266  
Year to date cooling degree days 703 638  
Since 1 June cooling degree days 676 608  
Growing Degree Days 31 (Base 50)    
Moisture  
Dew Point 64 °F    
Average Humidity 59    
Maximum Humidity 79    
Minimum Humidity 38    
Precipitation  
Precipitation 0.00 in 0.02 in 0.13 in (2012)
Month to date precipitation 0.16 0.68  
Year to date precipitation 5.18 11.15  
Since 1 July precipitation 0.40 1.00  
Snow  
Snow 0.00 in - - ()
Month to date snowfall 0.0  
Year to date snowfall 0.0  
Since 1 July snowfall 0.0  
Snow Depth 0.00 in    
Sea Level Pressure  
Sea Level Pressure 29.92 in    
Wind  
Wind Speed 8 mph (East)    
Max Wind Speed 20 mph    
Max Gust Speed 23 mph    
T = Trace of Precipitation, MM = Missing Value Source: NWS Daily Summary

Daily Weather History Graph

Daily Weather History Graph

Search for Another Location

Airport or City:

Trip Planner

Search our weather history database for the weather conditions in past years. The results will help you decide how hot, cold, wet, or windy it might be!

Date:

Astronomy

Aug. 30, 2013 Rise Set
Actual Time 6:19 AM PDT 7:12 PM PDT
Civil Twilight 5:54 AM PDT 7:37 PM PDT
Nautical Twilight 5:24 AM PDT 8:07 PM PDT
Astronomical Twilight 4:54 AM PDT 8:37 PM PDT
Moon 1:11 AM PDT (8/30) 3:22 PM PDT (8/30)
Length of Visible Light 13h 43m
Length of Day
12h 52m
Waning Crescent, 28% of the Moon is Illuminated
Aug 30
Waning Crescent
Sep 5
New
Sep 12
First Quarter
Sep 19
Full
Sep 26
Last Quarter

Hourly Weather History & Observations

Time (PDT) Temp. Heat Index Dew Point Humidity Pressure Visibility Wind Dir Wind Speed Gust Speed Precip Events Conditions
12:52 AM 75.0 °F - 66.0 °F 73% 29.92 in - ENE 12.7 mph - N/A   Unknown
1:52 AM 73.0 °F - 66.0 °F 79% 29.92 in - NE 4.6 mph - N/A   Unknown
2:52 AM 73.0 °F - 66.0 °F 79% 29.93 in - ENE 6.9 mph - N/A   Unknown
3:52 AM 73.9 °F - 64.9 °F 73% 29.91 in - East 10.4 mph - N/A   Unknown
4:52 AM 73.9 °F - 64.9 °F 73% 29.91 in - ENE 10.4 mph - N/A   Unknown
5:52 AM 73.0 °F - 64.9 °F 76% 29.93 in - East 9.2 mph - N/A   Unknown
6:52 AM 73.9 °F - 66.0 °F 76% 29.94 in - ENE 5.8 mph - N/A   Unknown
7:52 AM 75.9 °F - 66.0 °F 71% 29.96 in - ENE 5.8 mph - N/A   Unknown
8:52 AM 78.1 °F - 66.0 °F 66% 29.96 in - East 8.1 mph - N/A   Unknown
9:52 AM 82.0 °F 83.4 °F 64.0 °F 54% 29.96 in - Variable 3.5 mph - N/A   Unknown
10:52 AM 82.9 °F 84.4 °F 64.0 °F 53% 29.96 in - Calm Calm - N/A   Unknown
11:52 AM 87.1 °F 88.3 °F 64.0 °F 46% 29.95 in - Variable 4.6 mph - N/A   Unknown
12:52 PM 87.1 °F 87.5 °F 62.1 °F 43% 29.93 in - SSE 6.9 mph - N/A   Unknown
1:52 PM 88.0 °F 87.9 °F 61.0 °F 40% 29.90 in - SSW 10.4 mph - N/A   Unknown
2:52 PM 89.1 °F 90.0 °F 63.0 °F 42% 29.88 in - SW 11.5 mph - N/A   Unknown
3:52 PM 91.0 °F 91.9 °F 63.0 °F 39% 29.86 in - WSW 12.7 mph 21.9 mph N/A   Unknown
4:52 PM 84.9 °F 86.1 °F 64.0 °F 49% 29.88 in - Variable 6.9 mph 16.1 mph N/A   Unknown
5:52 PM 84.0 °F 85.4 °F 64.0 °F 51% 29.89 in - West 5.8 mph - N/A   Unknown
6:52 PM 82.0 °F 83.4 °F 64.0 °F 54% 29.90 in - West 11.5 mph - N/A   Unknown
7:52 PM 79.0 °F - 64.0 °F 60% 29.93 in - WSW 9.2 mph - N/A   Unknown
8:52 PM 78.1 °F - 64.0 °F 62% 29.93 in - WNW 3.5 mph - N/A   Unknown
9:52 PM 75.0 °F - 64.0 °F 69% 29.94 in - Calm Calm - N/A   Unknown
10:52 PM 71.1 °F - 62.1 °F 73% 29.94 in - Calm Calm - N/A   Unknown
11:52 PM 73.0 °F - 63.0 °F 71% 29.93 in - Calm Calm - N/A   Unknown